Zurück zum Katalog

SAMSAT-ION 2

AktivAmateurfunkSSO
NORAD 61784·PAYLOAD·🇷🇺 Russia
Dieser Satellitenname wurde noch nicht durch offizielle Quellen bestätigt.

Gestartet Nov 4, 2024 von Vostochny Cosmodrome

Loading…

Nächste Überflüge (nächste 24 Stunden)

TLE

AktuellSource: Space-Track

Epoche: Sep 14, 2026, 15:09 UTC

1 61784U 24199BB  26257.63137866  .00061684  00000-0  59047-3 0  9996
2 61784  97.2749 136.0940 0004065 321.8882  38.2091 15.66491408151527

Verfolge SAMSAT-ION 2 in Echtzeit mit AllMySat

Download on the App Store